Home   Weather   Jena   Past weeks

Flag for Germany Past Weather in Jena, Thuringia, Germany — Yesterday and Last 2 Weeks

Now
50 °F

Clear.


Feels Like: 47 °F
Forecast: 48 / 67 °F
Wind: 8 mph from Southwest

Location: Erfurt-Bindersleben

Current Time: Oct 1, 2016 at 12:08:16 AM

Latest Report: Sep 30, 2016 at 11:20 PM


Visibility: 10 mi

Pressure: 29.98 "Hg

Humidity: 94%

Dew Point: 48 °F

Location of JenaLocation

Past Weather in Jena — Graph

°F

Jena Temperature Yesterday

Maximum temperature yesterday: 64 °F (at 12:50 AM)
Minimum temperature yesterday: 50 °F (at 9:20 PM)
Average temperature yesterday: 57 °F

High & Low Weather Summary for the Past Weeks

 TemperatureHumidityPressure
High75 °F (Sep 29, 3:20 PM)100% (Sep 17, 2:20 AM)30.33 "Hg (Sep 17, 2:20 AM)
Low43 °F (Sep 21, 5:50 AM)40% (Sep 23, 3:50 PM)29.89 "Hg (Sep 15, 10:20 PM)
Average59 °F78%30.11 "Hg
* Reported Sep 15 10:20 PM — Sep 30 10:50 PM, Jena, Weather by CustomWeather, © 2016

Note: Actual official high and low records may vary slightly from our data, if they occured in-between our weather recording intervals... More about our weather records

Advertising

Jena Weather History for the Previous 24 Hours

Scroll right to see more
 ConditionsComfort  
Time TempWeatherWind HumidityBarometerVisibility
10:50 PM
Fri, Sep 30
52 °FClear.6 mph88%30.01 "Hg10 mi
10:20 PM50 °FClear.2 mph94%30.01 "Hg10 mi
9:50 PM50 °FClear.8 mph94%29.98 "Hg10 mi
9:20 PM50 °FClear.10 mph94%29.98 "Hg10 mi
8:50 PM52 °FClear.9 mph88%29.98 "Hg10 mi
8:20 PM52 °FClear.10 mph88%29.98 "Hg10 mi
7:50 PM54 °FClear.10 mph88%29.98 "Hg10 mi
7:20 PM54 °FClear.9 mph88%29.98 "Hg10 mi
6:50 PM54 °FSunny.8 mph88%29.98 "Hg10 mi
6:20 PM55 °FSunny.7 mph82%29.98 "Hg10 mi
5:50 PM55 °FSunny.6 mph82%29.98 "Hg10 mi
5:20 PM55 °FPartly sunny.8 mph82%29.98 "HgN/A
4:50 PM55 °FPartly sunny.8 mph82%29.95 "HgN/A
4:20 PM55 °FDrizzle. Broken clouds.10 mph82%29.95 "HgN/A
3:50 PM55 °FDrizzle. Broken clouds.10 mph94%29.98 "HgN/A
3:20 PM55 °FDrizzle. Broken clouds.9 mph88%29.98 "HgN/A
2:50 PM57 °FDrizzle. Broken clouds.5 mph88%29.98 "HgN/A
2:20 PM55 °FDrizzle. Broken clouds.8 mph94%29.98 "HgN/A
1:50 PM57 °FDrizzle. Broken clouds.8 mph82%29.98 "HgN/A
1:20 PM57 °FDrizzle. Broken clouds.8 mph82%29.98 "HgN/A
12:50 PM57 °FBroken clouds.7 mph82%29.98 "HgN/A
12:20 PM57 °FDrizzle. Partly sunny.9 mph82%29.98 "HgN/A
11:50 AM59 °FPartly sunny.9 mph77%29.98 "HgN/A
11:20 AM59 °FLight rain. Partly sunny.8 mph77%29.98 "HgN/A
10:50 AM59 °FBroken clouds.7 mph77%29.98 "HgN/A
10:20 AM57 °FPartly sunny.7 mph82%29.98 "HgN/A
9:50 AM57 °FPartly sunny.7 mph82%29.98 "HgN/A
9:20 AM57 °FPartly sunny.3 mph82%29.98 "HgN/A
8:50 AM57 °FBroken clouds.2 mph82%29.95 "HgN/A
8:20 AM57 °FBroken clouds.3 mph77%29.95 "HgN/A
7:50 AM57 °FPartly sunny.3 mph77%29.95 "HgN/A
7:20 AM57 °FPartly sunny.3 mph82%29.95 "HgN/A
6:50 AM57 °FPassing clouds.5 mph77%29.95 "HgN/A
6:20 AM57 °FPassing clouds.6 mph82%29.95 "HgN/A
5:50 AM57 °FPassing clouds.8 mph88%29.95 "HgN/A
5:20 AM63 °FPartly cloudy.12 mph73%29.92 "HgN/A
4:50 AM63 °FPartly cloudy.13 mph73%29.92 "HgN/A
4:20 AM63 °FPassing clouds.10 mph73%29.92 "HgN/A
3:50 AM63 °FPassing clouds.14 mph73%29.92 "HgN/A
3:20 AM61 °FPassing clouds.12 mph77%29.95 "HgN/A
2:50 AM61 °FPassing clouds.9 mph72%29.95 "HgN/A
2:20 AM61 °FPassing clouds.9 mph72%29.95 "HgN/A
1:50 AM63 °FClear.9 mph68%29.95 "Hg10 mi
1:20 AM63 °FClear.10 mph68%29.95 "Hg10 mi
12:50 AM64 °FClear.12 mph64%29.95 "Hg10 mi
12:20 AM63 °FClear.9 mph68%29.95 "Hg10 mi
Weather by CustomWeather, © 2016

See weather overviewHow to use our weather pages